Orbital Elements at Epoch 2459000.5 (2020-May-31.0) TDB
Reference: JPL 15 (heliocentric ecliptic J2000)
Element | Value | Uncertainty (1-sigma) | Units |
e | .2021442433413016 | 6.2648e-08 | |
a | 2.365862616708545 | 1.0964e-08 | au |
q | 1.887617108204524 | 1.4505e-07 | au |
i | 8.471940406494358 | 5.6677e-06 | deg |
node | 37.28518347070668 | 2.2899e-05 | deg |
peri | 349.795855778223 | 2.479e-05 | deg |
M | 197.9284793106687 | 1.1924e-05 | deg |
tp | 2459598.893567130835 (2022-Jan-19.39356713) | 4.7203e-05 | TDB |
period | 1329.176669971735 3.64 | 9.24e-06 2.53e-08 | d yr |
n | .2708443566103635 | 1.8828e-09 | deg/d |
Q | 2.844108125212566 | 1.3181e-08 | au |
|
| | Orbit Determination Parameters
Additional Information
|